Location: Les Coudrans
(46.1056°N, 1.1158°W)
Time: 18:33:52
(UTC+00:00)

Cosmos 1470 Rocket - Pass Details

Date: 03 March 2021
Orbit: 603 x 634 km, 82.5° (Epoch: 14 April)

Event Time Altitude Azimuth Distance (km) Brightness Sun altitude
Rises 18:34:48 0° 172° (S) 2,917 7.0 -7.9°
Reaches altitude 10° 18:37:05 10° 167° (SSE) 2,012 6.1 -8.3°
Maximum altitude 18:41:23 48° 93° (E) 829 3.8 -9.0°
Drops below altitude 10° 18:45:40 10° 20° (NNE) 2,016 6.0 -9.8°
Sets 18:47:58 0° 15° (NNE) 2,923 6.9 -10.2°
